Location: *
(46.3500°N, 10.9000°E)
Time: 00:07:31
(UTC+00:00)

Vanguard 2 - Pass Details

Date: 20 April 2021
Orbit: 552 x 2938 km, 32.9° (Epoch: 12 May)

Event Time Altitude Azimuth Distance (km) Brightness Sun altitude
Rises 16:41:32 0° 267° (W) 5,245 13.7 14.3°
Reaches altitude 10° 16:46:51 10° 252° (WSW) 3,726 12.6 13.4°
Maximum altitude 16:52:19 17° 215° (SW) 2,630 10.8 12.4°
Drops below altitude 10° 16:56:30 10° 175° (S) 2,718 10.3 11.7°
Sets 16:59:33 0° 155° (SSE) 3,354 10.5 11.2°
